Location: Boiro
(42.6475°N, 8.8834°W)
Time: 00:50:18
(UTC+01:00)

Explorer 7 - Pass Details

Date: 08 December 2021
Orbit: 483 x 674 km, 50.3° (Epoch: 23 January)

Event Time Altitude Azimuth Distance (km) Brightness Sun altitude
Rises 09:48:38 0° 299° (WNW) 2,741 9.7 7.5°
Reaches altitude 10° 09:51:05 10° 308° (NW) 1,810 8.9 7.8°
Maximum altitude 09:54:52 35° 15° (NNE) 857 7.7 8.3°
Drops below altitude 10° 09:58:28 10° 83° (E) 1,717 10.0 8.8°
Sets 10:00:44 0° 92° (E) 2,578 11.1 9.1°
